Location: Shepherdstown, WV
(39.4326°N, 77.8042°W)
Time: 16:35:10
(UTC-04:00)

Tianhe-1 - Visible Passes

Search period start: 23 June 2021 00:00
Search period end: 03 July 2021 00:00
Orbit: 375 x 386 km, 41.5° (Epoch: 23 June)

Date Brightness Start Highest point End Pass type
(mag) Time Alt. Az. Time Alt. Az. Time Alt. Az.
23 Jun 1.1 03:35:04 65° SE 03:35:04 65° SE 03:37:58 10° ENE visible
23 Jun 1.7 05:08:32 10° W 05:11:39 56° N 05:14:46 10° ENE visible
24 Jun 4.1 02:36:39 11° E 02:36:39 11° E 02:36:50 10° E visible
24 Jun 1.4 04:08:46 23° W 04:10:32 64° N 04:13:41 10° ENE visible
25 Jun 2.1 03:10:21 43° ENE 03:10:21 43° ENE 03:12:36 10° ENE visible
25 Jun 1.7 04:43:13 10° WNW 04:46:20 57° N 04:49:27 10° E visible
26 Jun 1.6 03:44:05 34° WNW 03:45:10 57° N 03:48:16 10° ENE visible
27 Jun 3.2 02:45:46 23° ENE 02:45:46 23° ENE 02:47:08 10° ENE visible
27 Jun 1.4 04:17:53 11° WNW 04:20:55 64° N 04:24:02 10° E visible
28 Jun 1.6 03:19:42 56° N 03:19:43 56° N 03:22:49 10° E visible
28 Jun 1.0 04:53:23 10° WNW 04:56:31 68° SSW 04:59:39 10° ESE visible
29 Jun 1.0 03:53:52 28° WNW 03:55:22 81° NNE 03:58:31 10° ESE visible
30 Jun 3.5 02:56:19 18° E 02:56:19 18° E 02:57:15 10° E visible
30 Jun 1.4 04:28:29 15° W 04:30:50 43° SSW 04:33:50 10° SE visible
01 Jul 2.9 03:31:32 22° ESE 03:31:32 22° ESE 03:32:48 10° ESE visible
01 Jul 2.8 05:04:06 10° WSW 05:06:04 16° SSW 05:08:02 10° S visible
01 Jul 3.2 21:37:12 10° S 21:37:48 11° SSE 21:37:48 11° SSE visible
02 Jul 3.6 04:07:38 10° SSE 04:07:38 10° SSE 04:07:43 10° SSE visible
02 Jul 1.6 22:10:47 10° SW 22:13:39 35° SSE 22:13:47 34° SSE visible
